Miscellaneous Local Product
Issued by NWS Hastings, NE

Home | Current Version | Previous Version | Text Only | Print | Product List | Glossary On
Versions: 1 2 3 4 5 6 7 8 9 10 11 12 13 14 15 16 17 18 19 20 21 22 23 24 25 26 27 28 29 30 31 32 33 34 35 36 37 38 39 40 41 42 43 44 45 46 47 48 49 50
455
AXUS43 KGID 200802
MISGRI

GID CWA HOURLY WEATHER ROUNDUP
NATIONAL WEATHER SERVICE HASTINGS NE
200 AM CST MON NOV 20 2017

NOTE: "FAIR" INDICATES FEW OR NO CLOUDS BELOW 12,000 FEET WITH NO
SIGNIFICANT WEATHER AND/OR OBSTRUCTIONS TO VISIBILITY.

...SOUTH CENTRAL NEBRASKA...

CITY           SKY/WX    TMP DP  RH WIND       PRES   REMARKS
GRAND ISLAND   CLOUDY    38  27  64 SW10      29.81F WCI  31
KEARNEY        CLOUDY    33  25  72 S8        29.81F WCI  26
HASTINGS       CLOUDY    38  24  57 SW9       29.83F WCI  31
ORD            CLOUDY    36  24  62 VRB3      29.76F
YORK           CLOUDY    32  25  74 CALM      29.83F
AURORA         CLOUDY    33  24  69 SW9       29.81F WCI  25
LEXINGTON      CLOUDY    37  23  58 W5        29.80F WCI  33
HOLDREGE       CLOUDY    39  27  60 SW13      29.81F WCI  32
HEBRON         CLEAR     40  23  50 S13       29.86S WCI  33

...NEBRASKA PANHANDLE...

CITY           SKY/WX    TMP DP  RH WIND       PRES   REMARKS
CHADRON        CLOUDY    22  14  71 SW5       29.75F WCI  16
ALLIANCE       CLOUDY    32  15  49 W13       29.77F WCI  22
SCOTTSBLUFF    CLOUDY    45   9  23 W17       29.80F
SIDNEY         CLOUDY    28  11  48 W13       29.83F WCI  17

...WESTERN AND NORTH CENTRAL NEBRASKA...

CITY           SKY/WX    TMP DP  RH WIND       PRES   REMARKS
VALENTINE      CLEAR     33  19  56 SW12      29.70F WCI  24
AINSWORTH      CLEAR     37  19  48 W13       29.71F WCI  28
ONEILL         CLOUDY    35  27  73 S10       29.71F WCI  27
BROKEN BOW     CLOUDY    37  23  56 W10       29.77F WCI  30
IMPERIAL       CLOUDY    30  18  60 W9        29.84F WCI  22
NORTH PLATTE   CLOUDY    24  18  77 NW3       29.81F
MCCOOK         CLEAR     37  22  54 W12       29.84S WCI  29

...EASTERN NEBRASKA...

CITY           SKY/WX    TMP DP  RH WIND       PRES   REMARKS
NORFOLK        CLEAR     35  25  66 S10       29.76F WCI  27
SO SIOUX CITY  CLEAR     30  25  81 E8        29.78F WCI  22
TEKAMAH        CLEAR     33  24  69 SE10      29.81F WCI  25
COLUMBUS       CLOUDY    36  24  62 SW3       29.81F
ALBION         CLOUDY    32  25  74 SE6       29.77F WCI  26
OMAHA EPPLEY   CLOUDY    34  25  69 S9        29.85F WCI  27
OFFUTT AFB     CLOUDY    32  25  75 E7        29.85F WCI  26
MILLARD        CLOUDY    39  26  60 SE5       29.85F
LINCOLN        CLOUDY    36  24  62 SE6       29.86F WCI  31
NEBRASKA CITY  CLOUDY    38  28  67 S10       29.88F WCI  30
BEATRICE       CLOUDY    40  26  57 S10       29.87F WCI  33
FALLS CITY     CLOUDY    43  26  51 S14       29.91F

...NORTHERN KANSAS...

CITY           SKY/WX    TMP DP  RH WIND       PRES   REMARKS
GOODLAND       CLOUDY    36  15  42 W12       29.87S WCI  28
HILL CITY      CLEAR     37  23  56 SW9       29.86F WCI  30
NORTON         SUNNY     30  21  69 W8        29.82F WCI  23
PHILLIPSBURG   CLEAR     37  25  60 S7        29.86F WCI  32
SMITH CENTER   CLEAR     32  23  69 S8        29.87F WCI  25
HAYS           CLEAR     37  21  52 SW8       29.90F WCI  31
RUSSELL        CLEAR     37  22  54 SW14      29.88F WCI  28
CONCORDIA      CLOUDY    44  22  41 S20       29.87F
SALINA         CLEAR     47  23  38 S10G21    29.93F
TOPEKA         CLOUDY    44  27  51 S9G20     29.98F



USA.gov is the U.S. government's official web portal to all federal, state and local government web resources and services.